{"data":{"norad_id":65672,"intl_designator":"2025-211W","name":"STARLINK-35198","alt_names":[],"object_type":"PAYLOAD","status":"ACTIVE","operator":null,"country":"US","launch_date":"2025-09-19","launch_site_code":"AFWTR","launch_vehicle":null,"mission":null,"orbit_class":"UNKNOWN","rcs_meters":null,"size_class":null,"mass_kg":null,"dimensions":null,"purposes":["comms"],"wikipedia_slug":null,"has_3d_model":false,"image_url":null,"decayed_at":null,"tle_current":{"epoch":"2026-05-25T03:58:59.611008Z","epoch_age_seconds":54608,"freshness":"FRESH","line1":"1 65672U 25211W   26145.16596772  .00037338  00000+0  25727-2 0  9996","line2":"2 65672  97.4468 189.1467 0002827 132.4700 227.6766 15.05729107 38552","mean_motion":15.05729107,"eccentricity":0.0002827,"inclination_deg":97.4468,"raan_deg":189.1467,"arg_perigee_deg":132.47,"mean_anomaly_deg":227.6766,"bstar":0.0025727,"rev_number":3855,"period_min":95.634732257321,"perigee_km":547.31013424489,"apogee_km":551.22688932125,"semimajor_km":6927.4055117831,"source":"CELESTRAK","updated_at":"2026-05-25T13:38:20.892169Z"}}}